[[{"header":{"parameterUnit":"m.s-1","parameterCategory":2,"la1":30.2991,"la2":30.254,"lo1":-89.0895,"lo2":-89.0444,"dy":0.0017,"dx":0.0017,"nx":28,"ny":28,"refTime":"2024-08-16T21:00:00:Z","depth":"0","parameterNumber":2,"parameterNumberName":"U-component_of_CURRENTS"},"data":[0,0,0,0,0,0,0,0,0,0,0,0,0,0,0,0,0,0,0,0,0,0,0,0,0,0,0,0,0,0,0,0,0,0,0,0,0,0,0,0,0,0,0,0,0,0,0,0,0,0,0,0,0,0,0,0,0,0,0.3142,0.3142,0,0.3132,0.3132,0.3132,0.3103,0.3102,0.3102,0.3101,0.3147,0.3149,0.3151,0,0,0,0,0,0,0,0,0,0,0,0,0,0.3185,0.3184,0.3142,0.3142,0.3142,0.3132,0.3132,0.3132,0.3103,0.3102,0.3101,0.3101,0.3147,0.3149,0.3151,0,0,0,0,0,0,0,0,0,0,0,0,0,0.317,0.3184,0.3142,0.3127,0.3125,0.3133,0.3132,0.3132,0.3103,0.3102,0.3101,0.31,0.3146,0.3149,0.3151,0.3185,0,0,0.3159,0.3161,0,0,0,0,0,0,0,0,0.317,0.3168,0.3129,0.3128,0.3126,0.3118,0.3165,0.3153,0.3103,0.3111,0.3101,0.31,0.3144,0.3147,0.3145,0.3188,0.319,0.316,0.3161,0.3162,0.3163,0,0,0,0,0,0,0,0.3171,0.3168,0.3137,0.3129,0.3127,0.3138,0.3134,0.3162,0.3133,0.311,0.3108,0.3108,0.3143,0.3143,0.3146,0.319,0.316,0.3162,0.3164,0.3165,0.3365,0.3368,0,0,0,0,0,0,0.3172,0.3169,0.3138,0.3137,0.3147,0.3137,0.3133,0.3121,0.3131,0.3132,0.3109,0.3107,0.3138,0.3143,0.3148,0.3259,0.3162,0.3165,0.3166,0.3361,0.3365,0.3369,0,0,0,0,0,0,0.3173,0.3169,0.3138,0.3154,0.3151,0.3137,0.3124,0.3122,0.3125,0.313,0.3131,0.3116,0.3138,0.3144,0.3203,0.3258,0.3166,0.3169,0.3357,0.3362,0.3367,0.3437,0,0,0,0,0,0,0.3174,0.3169,0.3167,0.3154,0.315,0.3161,0.3125,0.3122,0.3127,0.3124,0.3137,0.314,0.3138,0.3199,0.3205,0.326,0.3171,0.3352,0.3359,0.3366,0.343,0.3444,0.3457,0,0,0,0,0,0.3175,0.3176,0.3167,0.3163,0.3145,0.3162,0.3163,0.3149,0.3128,0.3146,0.3162,0.3139,0.3248,0.3204,0.321,0.3267,0.3348,0.3357,0.3365,0.3424,0.3442,0.3456,0,0,0,0,0,0,0.3192,0.3173,0.3162,0.3156,0.3168,0.3158,0.3169,0.3158,0.3181,0.3182,0.3177,0.3183,0.3264,0.3262,0.3213,0.3352,0.3299,0.3309,0.3342,0.3359,0.3372,0.3399,0.3173,0,0,0,0,0,0.3196,0.3191,0.3185,0.3184,0.319,0.3182,0.3186,0.3183,0.3197,0.3203,0.3216,0.3248,0.3305,0.3324,0.337,0.3431,0.3454,0.348,0.3493,0.3504,0.3536,0.3623,0.3646,0.3397,0.3397,0.3397,0,0,0.3199,0.3192,0.3187,0.3189,0.3191,0.3224,0.3183,0.3202,0.3243,0.321,0.3272,0.3297,0.3336,0.3417,0.3452,0.3417,0.3586,0.3514,0.3523,0.355,0.3634,0.3658,0.3679,0.3402,0.3401,0.3401,0,0,0.3216,0.3203,0.321,0.3231,0.3247,0.3258,0.3268,0.3277,0.3294,0.3355,0.336,0.3423,0.3477,0.3528,0.3559,0.3677,0.366,0.3685,0.3762,0.3846,0.3866,0.3885,0.3928,0.395,0.3681,0.3682,0.3682,0,0.3224,0.3227,0.3221,0.3251,0.3276,0.3278,0.3316,0.3349,0.3381,0.3419,0.3392,0.3525,0.3543,0.3667,0.3708,0.3708,0.3734,0.3686,0.3861,0.388,0.3897,0.3938,0.3961,0.3686,0.3685,0.3685,0.3685,0,0.3253,0.3268,0.3282,0.332,0.3357,0.3389,0.3436,0.3485,0.3503,0.3535,0.3651,0.3687,0.3763,0.3785,0.378,0.3926,0.3896,0.3869,0.381,0.3926,0.3962,0.3984,0.3692,0.3691,0.3689,0.3688,0,0,0.3228,0.3286,0.3291,0.3326,0.3394,0.3427,0.3523,0.3606,0.3675,0.3729,0.3825,0.3926,0.3935,0.3974,0.3982,0.4052,0.4185,0.4014,0.4016,0.404,0.4349,0.4153,0.4158,0.4179,0.4184,0.4188,0.4316,0,0.3249,0.3311,0.3342,0.3426,0.3465,0.3525,0.3615,0.3705,0.3773,0.3874,0.3945,0.4039,0.4011,0.4048,0.4124,0.4183,0.4253,0.4152,0.425,0.4253,0.405,0.4181,0.3945,0.4024,0.4338,0.4342,0.4344,0,0.3253,0.3305,0.3374,0.3481,0.3505,0.3568,0.3713,0.3795,0.3948,0.4003,0.4113,0.4158,0.4299,0.4238,0.441,0.4343,0.4367,0.4393,0.4398,0.4212,0.4101,0.3966,0.4053,0.3994,0.4379,0.4376,0.4374,0,0.3225,0.332,0.3375,0.3411,0.354,0.36,0.3683,0.3833,0.3925,0.4091,0.4172,0.4317,0.4403,0.4483,0.4527,0.4486,0.4687,0.463,0.448,0.4465,0.4284,0.4243,0.4312,0.4762,0.4762,0.4761,0.4761,0,0.3218,0.3264,0.3366,0.3403,0.3507,0.3598,0.373,0.383,0.3994,0.4108,0.4231,0.4341,0.4473,0.458,0.4598,0.4607,0.4747,0.4533,0.4504,0.4297,0.4257,0.4209,0.419,0.4766,0.4765,0.4764,0.4763,0,0.3168,0.3222,0.3305,0.3443,0.3488,0.3568,0.3747,0.3848,0.3996,0.4153,0.421,0.4411,0.4524,0.4613,0.4746,0.468,0.4573,0.4673,0.4393,0.4327,0.4055,0.4046,0.3929,0.383,0.4529,0.4526,0.4522,0,0.3144,0.3177,0.332,0.3379,0.344,0.357,0.3665,0.3832,0.3931,0.4171,0.4236,0.4411,0.4475,0.4592,0.4524,0.4512,0.4453,0.428,0.4152,0.4039,0.4014,0.3876,0.3794,0.3954,0.3946,0.394,0.3935,0,0.3143,0.3186,0.3272,0.3374,0.347,0.3569,0.3701,0.3775,0.3959,0.4059,0.4177,0.4246,0.4326,0.4205,0.4188,0.4148,0.405,0.4144,0.4138,0.3666,0.3419,0.3306,0.386,0.388,0.3885,0.3889,0.3892,0.3894,0.3158,0.3207,0.3311,0.3378,0.3469,0.3527,0.3545,0.3667,0.3758,0.3807,0.3984,0.3949,0.3945,0.3856,0.3807,0.3584,0.3629,0.3455,0.3489,0.3387,0.3176,0.3571,0.3471,0.3474,0.3477,0.3479,0.3481,0,0.3174,0.3223,0.3308,0.337,0.3375,0.3446,0.3522,0.3476,0.3462,0.3535,0.3537,0.347,0.3333,0.3317,0.3145,0.2997,0.2868,0.2929,0.2753,0.2734,0.3196,0.3055,0.2724,0.2724,0.2724,0.2724,0.2724,0.2725,0.3205,0.3256,0.3259,0.3236,0.3244,0.3174,0.3152,0.3097,0.3086,0.2962,0.2869,0.2902,0.3016,0.2931,0.2751,0.2667,0.2548,0.2323,0.2441,0.2844,0.2897,0.2949,0.2816,0.244,0.244,0.1818,0.1813,0.181]},{"header":{"parameterUnit":"m.s-1","parameterCategory":2,"la1":30.2991,"la2":30.254,"lo1":-89.0895,"lo2":-89.0444,"dy":0.0017,"dx":0.0017,"nx":28,"ny":28,"refTime":"2024-08-16T21:00:00:Z","depth":"0","parameterNumber":3,"parameterNumberName":"V-component_of_CURRENTS"},"data":[0,0,0,0,0,0,0,0,0,0,0,0,0,0,0,0,0,0,0,0,0,0,0,0,0,0,0,0,0,0,0,0,0,0,0,0,0,0,0,0,0,0,0,0,0,0,0,0,0,0,0,0,0,0,0,0,0,0,0.0253,0.0253,0,0.0231,0.023,0.023,0.0209,0.0208,0.0208,0.0208,0.0193,0.0193,0.0193,0,0,0,0,0,0,0,0,0,0,0,0,0,0.0265,0.0265,0.0253,0.0253,0.0253,0.0231,0.023,0.023,0.0209,0.0208,0.0208,0.0208,0.0193,0.0193,0.0192,0,0,0,0,0,0,0,0,0,0,0,0,0,0.0253,0.0265,0.0253,0.0239,0.0238,0.0231,0.023,0.023,0.0209,0.0208,0.0208,0.0208,0.0193,0.0193,0.0192,0.0199,0,0,0.0192,0.0192,0,0,0,0,0,0,0,0,0.0254,0.0252,0.0242,0.024,0.0239,0.0222,0.0229,0.022,0.0209,0.022,0.0208,0.0207,0.0204,0.0203,0.0199,0.0198,0.0197,0.0192,0.0192,0.0191,0.0191,0,0,0,0,0,0,0,0.0255,0.0253,0.0244,0.0241,0.024,0.023,0.0228,0.0227,0.0214,0.0219,0.0217,0.0215,0.0203,0.0199,0.0198,0.0197,0.0192,0.0192,0.0191,0.0191,0.0222,0.0223,0,0,0,0,0,0,0.0259,0.0254,0.0245,0.0243,0.0246,0.023,0.0228,0.0228,0.0214,0.0211,0.0215,0.0214,0.02,0.0199,0.0198,0.0238,0.0191,0.0191,0.0191,0.0221,0.0223,0.0224,0,0,0,0,0,0,0.0259,0.0258,0.0246,0.0248,0.0246,0.0231,0.023,0.0228,0.0226,0.0211,0.0209,0.0217,0.0199,0.0198,0.0209,0.0236,0.0191,0.0191,0.022,0.0222,0.0223,0.0297,0,0,0,0,0,0,0.026,0.0259,0.0261,0.0249,0.0246,0.0252,0.0231,0.0227,0.0226,0.0224,0.0213,0.021,0.0199,0.0209,0.0209,0.0235,0.0191,0.0219,0.0221,0.0223,0.0293,0.0301,0.0307,0,0,0,0,0,0.026,0.0268,0.0262,0.026,0.025,0.0252,0.0251,0.0238,0.0226,0.0234,0.0227,0.0211,0.022,0.021,0.0209,0.0236,0.0218,0.022,0.0223,0.029,0.0299,0.0307,0,0,0,0,0,0,0.027,0.0267,0.0259,0.0264,0.0262,0.0249,0.0254,0.0243,0.0242,0.0242,0.0224,0.0222,0.0241,0.0227,0.0216,0.0249,0.0216,0.0218,0.0268,0.0276,0.0283,0.0313,0.0191,0,0,0,0,0,0.0275,0.0284,0.0275,0.028,0.0281,0.0268,0.0267,0.026,0.0256,0.0255,0.0249,0.0245,0.0249,0.0253,0.0252,0.0271,0.026,0.0286,0.0293,0.0299,0.0323,0.0327,0.0337,0.0231,0.0231,0.0231,0,0,0.0279,0.028,0.0283,0.0284,0.028,0.0302,0.0267,0.0273,0.0297,0.0255,0.0286,0.0269,0.0259,0.0282,0.0289,0.0274,0.032,0.0302,0.0307,0.0328,0.033,0.0341,0.035,0.0232,0.0232,0.0232,0,0,0.0304,0.0295,0.0316,0.0322,0.0326,0.0325,0.033,0.0325,0.0328,0.035,0.0328,0.0332,0.0335,0.0339,0.0339,0.0384,0.0355,0.0376,0.0441,0.0444,0.0453,0.0461,0.0448,0.0455,0.0382,0.0382,0.0382,0,0.031,0.0339,0.0322,0.0349,0.0367,0.0342,0.0378,0.0381,0.0382,0.0401,0.0372,0.0392,0.0369,0.0413,0.0422,0.0403,0.0392,0.041,0.0455,0.0462,0.0469,0.0454,0.046,0.0386,0.0386,0.0385,0.0385,0,0.0357,0.0383,0.0397,0.0431,0.0445,0.0471,0.0476,0.0495,0.0492,0.0495,0.0529,0.0499,0.0517,0.05,0.0473,0.0516,0.0488,0.046,0.0436,0.0484,0.0465,0.047,0.0391,0.039,0.0389,0.0388,0,0,0.0373,0.0422,0.0431,0.0472,0.0495,0.0521,0.0563,0.0605,0.0655,0.0637,0.0701,0.0678,0.0657,0.0656,0.0619,0.0613,0.063,0.0561,0.0559,0.0554,0.0629,0.0568,0.0566,0.0609,0.061,0.0612,0.0592,0,0.0422,0.0499,0.0509,0.0595,0.0639,0.0644,0.0697,0.0729,0.0745,0.0798,0.0767,0.0806,0.0719,0.0733,0.0712,0.0665,0.0649,0.0637,0.058,0.0578,0.0522,0.0572,0.0574,0.0554,0.0597,0.0597,0.0598,0,0.0474,0.0526,0.0614,0.0704,0.0724,0.0769,0.0863,0.091,0.096,0.0974,0.0991,0.0966,0.0969,0.0881,0.0824,0.0821,0.0735,0.0677,0.0675,0.0601,0.0527,0.0514,0.0561,0.0473,0.0605,0.0605,0.0604,0,0.0518,0.0606,0.0687,0.0715,0.0802,0.0851,0.0902,0.0964,0.104,0.1094,0.1155,0.1127,0.1149,0.1045,0.0911,0.0876,0.0837,0.0773,0.0634,0.0627,0.0612,0.0601,0.0575,0.0728,0.0728,0.0728,0.0728,0,0.0576,0.0646,0.0718,0.0767,0.0887,0.0917,0.1049,0.1092,0.1186,0.131,0.1255,0.1344,0.1193,0.1145,0.0983,0.0837,0.0892,0.0666,0.063,0.0634,0.0626,0.0533,0.045,0.0728,0.0728,0.0728,0.0728,0,0.062,0.0661,0.0769,0.0871,0.0912,0.1002,0.1151,0.1255,0.132,0.1483,0.1514,0.1531,0.1468,0.1288,0.1135,0.0955,0.0727,0.0724,0.0727,0.0691,0.045,0.037,0.0274,0.023,0.0572,0.057,0.0569,0,0.065,0.0708,0.0845,0.0928,0.098,0.1113,0.1222,0.1317,0.1441,0.1612,0.171,0.1698,0.1713,0.145,0.1134,0.0845,0.0711,0.0638,0.056,0.0459,0.0345,0.0289,0.0257,0.0564,0.0563,0.0562,0.0561,0,0.0724,0.0769,0.0865,0.1021,0.1145,0.1297,0.1453,0.157,0.1717,0.1848,0.2013,0.2035,0.1792,0.1518,0.1102,0.0884,0.0563,0.0606,0.0522,0.0358,0.0281,0.0215,0.0541,0.0553,0.0554,0.0554,0.0555,0.0555,0.0788,0.0865,0.0989,0.1139,0.1282,0.1467,0.1602,0.178,0.1985,0.2179,0.2197,0.2225,0.1848,0.1285,0.1001,0.0501,0.0485,0.0342,0.026,0.0221,0.0162,0.0453,0.0405,0.0405,0.0405,0.0405,0.0405,0,0.087,0.096,0.1102,0.1285,0.144,0.1506,0.1753,0.1898,0.2136,0.2271,0.2371,0.2177,0.17,0.1223,0.0546,0.0225,0.0129,0.0069,0.0022,0.0009,0.0301,0.0285,0.0187,0.0187,0.0187,0.0187,0.0187,0.0187,0.0924,0.1062,0.1127,0.1382,0.1512,0.1729,0.187,0.2084,0.2221,0.2369,0.2357,0.2325,0.2006,0.0856,0.0146,-0.0028,-0.0196,-0.0269,-0.0338,-0.0117,-0.0095,-0.0075,-0.0104,-0.0283,-0.0284,-0.056,-0.0563,-0.0566]}],[{"header":{"parameterUnit":"m.s-1","parameterCategory":2,"la1":30.2991,"la2":30.254,"lo1":-89.0895,"lo2":-89.0444,"dy":0.0017,"dx":0.0017,"nx":28,"ny":28,"refTime":"2024-08-16T21:00:00:Z","depth":"2","parameterNumber":2,"parameterNumberName":"U-component_of_CURRENTS"},"data":[0,0,0,0,0,0,0,0,0,0,0,0,0,0,0,0,0,0,0,0,0,0,0,0,0,0,0,0,0,0,0,0,0,0,0,0,0,0,0,0,0,0,0,0,0,0,0,0,0,0,0,0,0,0,0,0,0,0,0.2814,0.2814,0,0.2814,0.2814,0.2814,0.28,0.28,0.28,0.2799,0.2837,0.2838,0.2839,0,0,0,0,0,0,0,0,0,0,0,0,0,0.2845,0.2845,0.2814,0.2814,0.2814,0.2814,0.2814,0.2814,0.28,0.28,0.28,0.2799,0.2836,0.2838,0.2839,0,0,0,0,0,0,0,0,0,0,0,0,0,0.2836,0.2844,0.2814,0.2808,0.2807,0.2814,0.2814,0.2814,0.28,0.28,0.2799,0.2799,0.2836,0.2838,0.284,0.286,0,0,0.2845,0.2846,0,0,0,0,0,0,0,0,0.2837,0.2835,0.2809,0.2808,0.2808,0.2807,0.2839,0.2831,0.28,0.2802,0.2799,0.2799,0.2831,0.2833,0.2833,0.2862,0.2863,0.2845,0.2847,0.2847,0.2848,0,0,0,0,0,0,0,0.2837,0.2835,0.2813,0.2809,0.2808,0.282,0.2818,0.2837,0.2819,0.2802,0.2801,0.2802,0.2831,0.2831,0.2834,0.2864,0.2845,0.2847,0.2848,0.2849,0.3003,0.3006,0,0,0,0,0,0,0.2837,0.2836,0.2813,0.2813,0.2822,0.282,0.2817,0.2807,0.2818,0.2819,0.2803,0.2802,0.2828,0.2831,0.2835,0.2921,0.2847,0.2849,0.285,0.3,0.3004,0.3007,0,0,0,0,0,0,0.2837,0.2834,0.2813,0.2826,0.2824,0.2819,0.2808,0.2807,0.2818,0.2819,0.282,0.2816,0.2828,0.2832,0.2876,0.292,0.285,0.2852,0.2996,0.3001,0.3005,0.3053,0,0,0,0,0,0,0.2838,0.2834,0.2836,0.2825,0.2823,0.2834,0.2809,0.2808,0.2819,0.2818,0.283,0.2832,0.2828,0.2873,0.2877,0.2921,0.2853,0.2993,0.2999,0.3004,0.3048,0.3058,0.3068,0,0,0,0,0,0.2839,0.2841,0.2836,0.2834,0.2822,0.2835,0.2836,0.2831,0.282,0.2836,0.2848,0.2832,0.2912,0.2876,0.2881,0.2926,0.299,0.2997,0.3003,0.3043,0.3056,0.3067,0,0,0,0,0,0,0.2854,0.2839,0.2833,0.283,0.2841,0.2833,0.2847,0.2842,0.2861,0.2865,0.2859,0.2863,0.293,0.2924,0.2885,0.2993,0.2954,0.2962,0.2983,0.2995,0.3005,0.3029,0.2855,0,0,0,0,0,0.2859,0.2856,0.2851,0.2853,0.2859,0.2856,0.2863,0.2863,0.2874,0.2881,0.2891,0.2916,0.296,0.2971,0.3009,0.305,0.3068,0.309,0.31,0.3108,0.3135,0.322,0.3239,0.3029,0.3028,0.3028,0,0,0.2862,0.2858,0.2854,0.2857,0.2863,0.2884,0.286,0.288,0.2906,0.2885,0.2931,0.2958,0.2985,0.3045,0.3073,0.3041,0.3171,0.3117,0.3123,0.3146,0.3229,0.3249,0.3267,0.3033,0.3032,0.3032,0,0,0.2875,0.287,0.2876,0.2893,0.2911,0.2915,0.2925,0.2935,0.295,0.2998,0.3003,0.3055,0.31,0.313,0.3151,0.3241,0.3234,0.3256,0.3307,0.3388,0.3406,0.3422,0.3431,0.3447,0.3244,0.3244,0.3245,0,0.2885,0.2884,0.2884,0.2907,0.2923,0.2932,0.2955,0.2981,0.3007,0.3036,0.3028,0.314,0.3149,0.3235,0.3266,0.3264,0.3289,0.3248,0.34,0.3416,0.3432,0.3438,0.3455,0.3248,0.3247,0.3247,0.3247,0,0.2905,0.2914,0.2927,0.2952,0.2977,0.3001,0.3034,0.3069,0.3091,0.3122,0.3222,0.3252,0.332,0.3332,0.3323,0.3441,0.3414,0.3411,0.3361,0.3456,0.3455,0.3473,0.3252,0.3251,0.325,0.3249,0,0,0.2888,0.2928,0.2932,0.2949,0.3001,0.3017,0.3083,0.3138,0.3197,0.3251,0.3334,0.3412,0.3443,0.3473,0.3479,0.3536,0.3638,0.3521,0.3523,0.3515,0.3781,0.3631,0.3634,0.3668,0.3672,0.3676,0.3721,0,0.2899,0.2937,0.2959,0.3004,0.3025,0.3067,0.3134,0.3199,0.3264,0.3354,0.3417,0.3513,0.3494,0.354,0.3602,0.3653,0.3695,0.3624,0.3706,0.3707,0.3552,0.3655,0.3349,0.3354,0.3737,0.374,0.3742,0,0.2899,0.2928,0.2964,0.3027,0.3043,0.3086,0.3186,0.3252,0.3388,0.3448,0.3557,0.3618,0.3728,0.3698,0.3831,0.3792,0.3801,0.3817,0.3819,0.3683,0.3592,0.3334,0.3371,0.3771,0.3769,0.3767,0.3765,0,0.2866,0.2922,0.2945,0.2969,0.3054,0.3092,0.3154,0.3284,0.3364,0.3525,0.361,0.3744,0.3828,0.3899,0.3926,0.3905,0.4046,0.4014,0.3877,0.3862,0.3621,0.3579,0.4112,0.4112,0.4112,0.4111,0.4111,0,0.2852,0.2871,0.2934,0.2952,0.3022,0.3088,0.3194,0.3282,0.3434,0.3542,0.3667,0.3771,0.3896,0.3977,0.3982,0.3978,0.4094,0.3914,0.389,0.3622,0.3582,0.3965,0.3948,0.4113,0.4113,0.4112,0.4112,0,0.2803,0.2841,0.2879,0.2968,0.3004,0.306,0.3209,0.3285,0.3442,0.3588,0.3649,0.3832,0.393,0.3992,0.4094,0.4033,0.4047,0.4002,0.3641,0.3574,0.3787,0.3772,0.3877,0.3873,0.3869,0.3866,0.3863,0,0.2776,0.2788,0.2879,0.2921,0.2962,0.3059,0.3128,0.3279,0.3356,0.3604,0.3653,0.3821,0.3863,0.3937,0.3891,0.3855,0.3963,0.354,0.3451,0.3811,0.3777,0.3767,0.3758,0.3132,0.3123,0.3117,0.3111,0,0.2741,0.2773,0.2814,0.2897,0.296,0.3021,0.3122,0.3176,0.3347,0.3447,0.3549,0.3606,0.3688,0.3525,0.351,0.3453,0.3525,0.3397,0.3917,0.3232,0.311,0.3076,0.3091,0.305,0.3056,0.3061,0.3064,0.3066,0.2725,0.2745,0.2804,0.2859,0.2932,0.2951,0.2942,0.3021,0.3086,0.3169,0.3327,0.3291,0.3319,0.3129,0.301,0.2921,0.3168,0.3018,0.3039,0.3067,0.2967,0.2845,0.2712,0.2716,0.272,0.2723,0.2725,0,0.2692,0.272,0.2766,0.2793,0.2784,0.287,0.2901,0.2826,0.2791,0.2904,0.2927,0.2684,0.2567,0.2591,0.2352,0.2321,0.23,0.2224,0.2183,0.2245,0.23,0.216,0.1693,0.1689,0.1686,0.1683,0,0,0.2694,0.2694,0.2684,0.2628,0.2642,0.2561,0.254,0.245,0.2455,0.2376,0.2334,0.2513,0.2542,0.2122,0.204,0.1826,0.2028,0.1745,0.2578,0.2596,0.2648,0.2763,0.2619,0,0,0,0,0]},{"header":{"parameterUnit":"m.s-1","parameterCategory":2,"la1":30.2991,"la2":30.254,"lo1":-89.0895,"lo2":-89.0444,"dy":0.0017,"dx":0.0017,"nx":28,"ny":28,"refTime":"2024-08-16T21:00:00:Z","depth":"2","parameterNumber":3,"parameterNumberName":"V-component_of_CURRENTS"},"data":[0,0,0,0,0,0,0,0,0,0,0,0,0,0,0,0,0,0,0,0,0,0,0,0,0,0,0,0,0,0,0,0,0,0,0,0,0,0,0,0,0,0,0,0,0,0,0,0,0,0,0,0,0,0,0,0,0,0,0.0139,0.0139,0,0.0119,0.0119,0.0119,0.0101,0.0101,0.0101,0.0101,0.0084,0.0084,0.0083,0,0,0,0,0,0,0,0,0,0,0,0,0,0.015,0.0149,0.0139,0.0139,0.0139,0.012,0.0119,0.0119,0.0102,0.0101,0.0101,0.0101,0.0084,0.0084,0.0083,0,0,0,0,0,0,0,0,0,0,0,0,0,0.0139,0.0149,0.0139,0.0128,0.0126,0.012,0.0119,0.0119,0.0102,0.0101,0.0101,0.0101,0.0084,0.0084,0.0083,0.0087,0,0,0.0082,0.0082,0,0,0,0,0,0,0,0,0.014,0.0139,0.013,0.0128,0.0127,0.0113,0.0117,0.0108,0.0102,0.0111,0.0101,0.0101,0.0094,0.0093,0.009,0.0086,0.0085,0.0082,0.0082,0.0082,0.0081,0,0,0,0,0,0,0,0.014,0.0139,0.0131,0.0129,0.0128,0.0119,0.0118,0.0115,0.0104,0.011,0.0109,0.0107,0.0093,0.009,0.0089,0.0085,0.0082,0.0082,0.0081,0.0081,0.01,0.01,0,0,0,0,0,0,0.0144,0.014,0.0132,0.0131,0.0133,0.012,0.0118,0.0118,0.0104,0.0102,0.0107,0.0106,0.0091,0.009,0.0088,0.0118,0.0082,0.0081,0.0081,0.0099,0.01,0.01,0,0,0,0,0,0,0.0144,0.0143,0.0133,0.0135,0.0133,0.012,0.012,0.0117,0.0118,0.0102,0.01,0.011,0.0091,0.0089,0.0096,0.0117,0.0081,0.0081,0.0098,0.0099,0.01,0.0161,0,0,0,0,0,0,0.0145,0.0144,0.0147,0.0135,0.0133,0.0138,0.012,0.0117,0.0117,0.0115,0.0104,0.0102,0.009,0.0096,0.0095,0.0115,0.008,0.0097,0.0098,0.01,0.0159,0.0165,0.017,0,0,0,0,0,0.0145,0.0153,0.0147,0.0146,0.0137,0.0139,0.0137,0.0126,0.0117,0.0124,0.0117,0.0102,0.0104,0.0097,0.0095,0.0116,0.0096,0.0098,0.01,0.0156,0.0163,0.017,0,0,0,0,0,0,0.0154,0.0151,0.0145,0.0149,0.0148,0.0136,0.014,0.0131,0.013,0.013,0.0112,0.011,0.0124,0.011,0.0102,0.0124,0.0098,0.0099,0.0141,0.0148,0.0153,0.0175,0.008,0,0,0,0,0,0.0159,0.0167,0.0159,0.0164,0.0164,0.0153,0.0152,0.0147,0.0143,0.0141,0.0135,0.0128,0.0129,0.0131,0.0127,0.014,0.0122,0.0151,0.0157,0.0162,0.0178,0.0175,0.0182,0.0106,0.0106,0.0106,0,0,0.0162,0.0163,0.0166,0.0167,0.0164,0.0182,0.0152,0.0158,0.0178,0.0141,0.0165,0.0148,0.0136,0.0152,0.0156,0.0144,0.0169,0.0164,0.0168,0.0182,0.0177,0.0185,0.0192,0.0107,0.0107,0.0107,0,0,0.0185,0.0177,0.0196,0.0202,0.0205,0.0202,0.0207,0.0202,0.0205,0.0222,0.0201,0.0199,0.02,0.0197,0.0194,0.0228,0.0197,0.0223,0.0273,0.027,0.0276,0.0282,0.0247,0.025,0.0228,0.0228,0.0228,0,0.019,0.0215,0.0201,0.0225,0.024,0.0217,0.0248,0.0249,0.0249,0.026,0.024,0.0246,0.0226,0.0251,0.0258,0.0243,0.0226,0.0249,0.0278,0.0283,0.0288,0.0251,0.0253,0.0231,0.0231,0.023,0.023,0,0.0231,0.0253,0.0266,0.0295,0.0306,0.0327,0.033,0.0342,0.0339,0.0339,0.0358,0.0331,0.0338,0.0324,0.0301,0.0328,0.0297,0.0284,0.0263,0.03,0.0258,0.0259,0.0236,0.0235,0.0234,0.0233,0,0,0.0247,0.0288,0.0297,0.033,0.0348,0.0368,0.0399,0.0427,0.0464,0.0446,0.0491,0.0466,0.0446,0.0442,0.041,0.0398,0.0396,0.0359,0.0358,0.0329,0.037,0.0332,0.0328,0.0391,0.0392,0.0393,0.032,0,0.029,0.0356,0.0363,0.0433,0.0469,0.0468,0.051,0.0529,0.0538,0.0574,0.0539,0.0567,0.0495,0.0507,0.0482,0.0434,0.0405,0.0416,0.0336,0.0334,0.03,0.0331,0.0342,0.0278,0.032,0.032,0.032,0,0.0337,0.0379,0.0454,0.0523,0.054,0.0576,0.0644,0.0682,0.071,0.072,0.0721,0.0697,0.0684,0.062,0.0541,0.0554,0.0468,0.041,0.0406,0.0356,0.0299,0.0252,0.0277,0.0321,0.0321,0.0321,0.0321,0,0.0376,0.0447,0.0515,0.0537,0.0606,0.0643,0.0683,0.0725,0.0789,0.0821,0.0868,0.0824,0.0835,0.0731,0.0593,0.058,0.0493,0.0461,0.0335,0.0329,0.0317,0.031,0.0398,0.0398,0.0398,0.0399,0.0399,0,0.0428,0.0485,0.0541,0.0583,0.0683,0.0703,0.0813,0.0842,0.0914,0.1015,0.0955,0.1014,0.0868,0.0795,0.0643,0.0492,0.0527,0.0353,0.0321,0.0335,0.033,0.0354,0.035,0.0396,0.0396,0.0397,0.0397,0,0.0469,0.0504,0.0591,0.0671,0.0708,0.0782,0.091,0.0993,0.1042,0.1174,0.1198,0.1173,0.1085,0.0899,0.0733,0.0577,0.0421,0.0346,0.0352,0.0323,0.0241,0.0241,0.022,0.0219,0.0217,0.0216,0.0215,0,0.0497,0.0545,0.0659,0.0732,0.0775,0.0889,0.0982,0.1057,0.1156,0.128,0.1352,0.1304,0.1273,0.0987,0.0723,0.0448,0.0405,0.0261,0.024,0.0259,0.0229,0.0231,0.0233,0.0231,0.023,0.023,0.0229,0,0.0556,0.0594,0.0672,0.0815,0.0922,0.1054,0.1183,0.128,0.1396,0.1486,0.1573,0.1551,0.1309,0.1041,0.0668,0.0478,0.0308,0.0239,0.0282,0.0277,0.0264,0.0236,0.0239,0.0224,0.0224,0.0225,0.0225,0.0225,0.0606,0.067,0.0776,0.0914,0.1045,0.1204,0.1314,0.1446,0.1598,0.1739,0.1714,0.1672,0.1389,0.0912,0.0595,0.0266,0.0294,0.0154,0.0158,0.0162,0.0179,0.0166,0.0107,0.0107,0.0107,0.0107,0.0107,0,0.0671,0.0749,0.0872,0.1033,0.1174,0.124,0.1444,0.154,0.1703,0.1811,0.1852,0.1558,0.1263,0.0926,0.0451,0.0163,0.0142,0.0048,0.0093,0.0101,0.0107,0.0123,0.0035,0.0034,0.0033,0.0032,0,0,0.0714,0.0829,0.0886,0.1112,0.1234,0.1416,0.1537,0.1667,0.1766,0.1841,0.182,0.1767,0.1359,0.0996,0.0609,0.0327,0.0275,0.0257,0.0346,0.0453,0.0463,0.0197,0.0233,0,0,0,0,0]}],[{"header":{"parameterUnit":"m.s-1","parameterCategory":2,"la1":30.2991,"la2":30.254,"lo1":-89.0895,"lo2":-89.0444,"dy":0.0017,"dx":0.0017,"nx":28,"ny":28,"refTime":"2024-08-16T21:00:00:Z","depth":"4","parameterNumber":2,"parameterNumberName":"U-component_of_CURRENTS"},"data":[0,0,0,0,0,0,0,0,0,0,0,0,0,0,0,0,0,0,0,0,0,0,0,0,0,0,0,0,0,0,0,0,0,0,0,0,0,0,0,0,0,0,0,0,0,0,0,0,0,0,0,0,0,0,0,0,0,0,0.1802,0.1803,0,0.1852,0.1852,0.1853,0.1901,0.1901,0.1902,0.1903,0.1956,0.1957,0.1958,0,0,0,0,0,0,0,0,0,0,0,0,0,0.1765,0.1766,0.1802,0.1803,0.1804,0.1852,0.1852,0.1853,0.1901,0.1902,0.1902,0.1903,0.1956,0.1957,0.1958,0,0,0,0,0,0,0,0,0,0,0,0,0,0.1793,0.1766,0.1802,0.1834,0.1838,0.1851,0.1852,0.1853,0.19,0.1902,0.1903,0.1904,0.1956,0.1957,0.1958,0.1942,0,0,0.1961,0.1962,0,0,0,0,0,0,0,0,0.1792,0.1795,0.1829,0.1832,0.1836,0.1872,0.1859,0.1883,0.19,0.1875,0.1903,0.1904,0.1928,0.1932,0.1937,0.1945,0.1947,0.1961,0.1962,0.1962,0.1963,0,0,0,0,0,0,0,0.179,0.1793,0.182,0.1829,0.1834,0.1852,0.1857,0.1864,0.1894,0.1878,0.1881,0.1889,0.193,0.1936,0.1938,0.1948,0.1961,0.1962,0.1963,0.1963,0.2046,0.2048,0,0,0,0,0,0,0.1784,0.1791,0.1819,0.1822,0.1818,0.1852,0.1857,0.1858,0.1894,0.1901,0.1888,0.1891,0.1933,0.1937,0.1941,0.2014,0.1962,0.1963,0.1964,0.2045,0.2047,0.2048,0,0,0,0,0,0,0.1783,0.1786,0.1817,0.1809,0.1815,0.1851,0.1852,0.1859,0.1903,0.1902,0.1909,0.193,0.1934,0.1939,0.1981,0.2013,0.1964,0.1965,0.2043,0.2045,0.2048,0.2104,0,0,0,0,0,0,0.1781,0.1785,0.1805,0.1808,0.1815,0.1852,0.1852,0.1859,0.1904,0.191,0.1939,0.1943,0.1935,0.198,0.1982,0.2014,0.1966,0.2041,0.2044,0.2047,0.21,0.2108,0.2115,0,0,0,0,0,0.178,0.1794,0.1806,0.1811,0.1834,0.1853,0.1859,0.1887,0.1905,0.1931,0.1953,0.1944,0.2,0.1982,0.1985,0.2017,0.204,0.2043,0.2047,0.2097,0.2106,0.2115,0,0,0,0,0,0,0.1791,0.1801,0.1813,0.1832,0.1856,0.1863,0.1894,0.1909,0.1946,0.1964,0.1962,0.1968,0.2015,0.2011,0.199,0.2051,0.2019,0.2023,0.2057,0.2066,0.2073,0.2077,0.1967,0,0,0,0,0,0.1801,0.1819,0.183,0.1852,0.1867,0.1889,0.1909,0.1927,0.1949,0.1969,0.1989,0.201,0.2023,0.2043,0.2053,0.2087,0.2098,0.2111,0.2118,0.2125,0.2131,0.2192,0.2206,0.206,0.206,0.206,0,0,0.1812,0.1823,0.1835,0.1858,0.1881,0.1898,0.1905,0.1946,0.1967,0.1967,0.2021,0.2038,0.2038,0.2075,0.2096,0.2082,0.217,0.2129,0.2134,0.2138,0.2197,0.2212,0.2224,0.2062,0.2062,0.2061,0,0,0.183,0.1856,0.1873,0.1892,0.193,0.1938,0.1958,0.1989,0.2018,0.2061,0.2065,0.211,0.2134,0.2145,0.2148,0.2204,0.2204,0.221,0.2255,0.2314,0.2327,0.2338,0.2359,0.2372,0.2217,0.2217,0.2217,0,0.185,0.1861,0.1885,0.1904,0.192,0.1958,0.1975,0.2004,0.2049,0.2078,0.2091,0.2153,0.2165,0.2198,0.2222,0.2221,0.2244,0.2219,0.2324,0.2336,0.2346,0.2366,0.2379,0.222,0.222,0.2219,0.2219,0,0.1862,0.1887,0.1903,0.1931,0.1956,0.1984,0.2012,0.2061,0.2104,0.213,0.2198,0.2221,0.2265,0.2273,0.2266,0.2341,0.2329,0.2324,0.2302,0.2364,0.238,0.2393,0.2225,0.2223,0.2223,0.2222,0,0,0.1855,0.1901,0.191,0.1924,0.1972,0.1985,0.2039,0.2086,0.2134,0.2195,0.2252,0.2296,0.2339,0.2346,0.2354,0.2403,0.2498,0.2405,0.2407,0.2425,0.2615,0.2431,0.2427,0.2522,0.2525,0.2527,0.2592,0,0.186,0.1888,0.1913,0.1945,0.1955,0.2008,0.2049,0.2106,0.2168,0.2239,0.2289,0.2348,0.2355,0.2394,0.245,0.2493,0.2537,0.2479,0.2553,0.2554,0.2383,0.2438,0.2536,0.2602,0.2605,0.2607,0.2608,0,0.185,0.1868,0.1896,0.1941,0.1955,0.1992,0.2071,0.2117,0.2222,0.2278,0.2363,0.2405,0.2497,0.2489,0.2609,0.2579,0.2609,0.2627,0.263,0.2447,0.2394,0.2529,0.2631,0.263,0.2628,0.2626,0.2625,0,0.1803,0.1851,0.1871,0.1886,0.1948,0.1993,0.2047,0.2144,0.2197,0.2324,0.239,0.2485,0.2569,0.2627,0.2689,0.2671,0.2798,0.2775,0.2624,0.261,0.2732,0.2719,0.2849,0.2849,0.2849,0.2849,0.2849,0,0.1767,0.1788,0.1862,0.1872,0.1912,0.1978,0.2054,0.2126,0.2243,0.2311,0.2424,0.2486,0.262,0.2699,0.2721,0.2713,0.2837,0.2635,0.2621,0.2751,0.274,0.274,0.2727,0.2851,0.2851,0.285,0.285,0,0.1699,0.1753,0.1775,0.1856,0.189,0.1925,0.205,0.2098,0.224,0.2337,0.2385,0.2539,0.2642,0.2722,0.2824,0.275,0.2752,0.2711,0.2838,0.283,0.2511,0.25,0.2542,0.2536,0.2531,0.2527,0.2524,0,0.1659,0.1666,0.175,0.177,0.1815,0.1891,0.1938,0.2079,0.213,0.2339,0.2361,0.2524,0.2605,0.2604,0.2697,0.2706,0.2674,0.2644,0.2572,0.25,0.2484,0.2481,0.2476,0.2516,0.2515,0.2513,0.2512,0,0.1569,0.1619,0.1639,0.1682,0.1734,0.1778,0.1868,0.1889,0.2052,0.221,0.2288,0.2338,0.2445,0.2501,0.2531,0.2529,0.2644,0.2592,0.2601,0.2534,0.2469,0.2457,0.2459,0.2495,0.2497,0.2499,0.25,0,0.1504,0.1496,0.1538,0.1561,0.1628,0.1639,0.1699,0.1762,0.1837,0.2065,0.209,0.2265,0.243,0.241,0.2433,0.2421,0.2378,0.2281,0.2305,0.2325,0.222,0.2104,0.2011,0,0,0,0,0,0.1424,0.1401,0.1409,0.1422,0.1491,0.1533,0.1631,0.1697,0.1863,0.1864,0.1973,0.2056,0.2119,0.2201,0.2144,0.2311,0.2369,0.223,0.2265,0.24,0.242,0.2314,0,0,0,0,0,0,0.136,0.1368,0.1356,0.1313,0.1312,0.1363,0.1423,0.153,0.1535,0.1726,0.1773,0.1928,0.2016,0.2148,0.2113,0.2133,0.2106,0.2339,0.2333,0.2389,0.2407,0.2423,0.232,0,0,0,0,0]},{"header":{"parameterUnit":"m.s-1","parameterCategory":2,"la1":30.2991,"la2":30.254,"lo1":-89.0895,"lo2":-89.0444,"dy":0.0017,"dx":0.0017,"nx":28,"ny":28,"refTime":"2024-08-16T21:00:00:Z","depth":"4","parameterNumber":3,"parameterNumberName":"V-component_of_CURRENTS"},"data":[0,0,0,0,0,0,0,0,0,0,0,0,0,0,0,0,0,0,0,0,0,0,0,0,0,0,0,0,0,0,0,0,0,0,0,0,0,0,0,0,0,0,0,0,0,0,0,0,0,0,0,0,0,0,0,0,0,0,0.0073,0.0073,0,0.0061,0.0061,0.0061,0.005,0.005,0.005,0.0049,0.0039,0.0039,0.0039,0,0,0,0,0,0,0,0,0,0,0,0,0,0.0077,0.0077,0.0073,0.0073,0.0072,0.0061,0.0061,0.0061,0.005,0.005,0.005,0.0049,0.0039,0.0039,0.0039,0,0,0,0,0,0,0,0,0,0,0,0,0,0.0072,0.0077,0.0073,0.0065,0.0065,0.0061,0.0061,0.0061,0.005,0.005,0.005,0.0049,0.0039,0.0039,0.0039,0.0042,0,0,0.0038,0.0038,0,0,0,0,0,0,0,0,0.0072,0.0071,0.0067,0.0066,0.0065,0.0057,0.0059,0.0054,0.005,0.0056,0.0049,0.0049,0.0045,0.0044,0.0043,0.0041,0.0041,0.0038,0.0038,0.0038,0.0038,0,0,0,0,0,0,0,0.0072,0.0072,0.0068,0.0067,0.0066,0.006,0.0059,0.0058,0.0052,0.0055,0.0054,0.0053,0.0044,0.0043,0.0042,0.0041,0.0038,0.0038,0.0038,0.0037,0.0051,0.0051,0,0,0,0,0,0,0.0074,0.0072,0.0069,0.0068,0.0068,0.006,0.0059,0.006,0.0052,0.005,0.0053,0.0052,0.0043,0.0043,0.0042,0.0064,0.0038,0.0037,0.0037,0.005,0.0051,0.0051,0,0,0,0,0,0,0.0074,0.0074,0.0069,0.007,0.0068,0.006,0.0061,0.006,0.0061,0.005,0.0049,0.0056,0.0043,0.0042,0.0048,0.0063,0.0037,0.0037,0.005,0.005,0.0051,0.0096,0,0,0,0,0,0,0.0075,0.0074,0.0077,0.007,0.0069,0.0074,0.0061,0.0059,0.006,0.0059,0.0052,0.0051,0.0043,0.0048,0.0047,0.0062,0.0037,0.0049,0.005,0.0051,0.0094,0.0098,0.0101,0,0,0,0,0,0.0075,0.008,0.0077,0.0077,0.0072,0.0074,0.0073,0.0066,0.006,0.0066,0.0061,0.0051,0.0053,0.0048,0.0047,0.0062,0.0049,0.005,0.0051,0.0092,0.0097,0.0101,0,0,0,0,0,0,0.0081,0.008,0.0076,0.008,0.008,0.0072,0.0076,0.007,0.0071,0.0071,0.0059,0.0057,0.0066,0.0057,0.0052,0.0068,0.0049,0.005,0.008,0.0085,0.0089,0.0096,0.0037,0,0,0,0,0,0.0084,0.0091,0.0086,0.0091,0.0091,0.0084,0.0084,0.0081,0.0079,0.0079,0.0075,0.007,0.0069,0.0072,0.0068,0.0079,0.0056,0.0087,0.0091,0.0095,0.0099,0.0079,0.0081,0.0055,0.0055,0.0055,0,0,0.0087,0.0088,0.0091,0.0093,0.0092,0.0105,0.0084,0.0089,0.0104,0.0078,0.0097,0.0083,0.0074,0.0086,0.0089,0.0082,0.0088,0.0096,0.0099,0.0102,0.008,0.0083,0.0085,0.0056,0.0055,0.0055,0,0,0.0102,0.0098,0.0112,0.0117,0.012,0.0119,0.0123,0.0121,0.0124,0.0137,0.0121,0.0117,0.012,0.0116,0.0114,0.0137,0.0107,0.0135,0.0166,0.0146,0.0148,0.015,0.0114,0.0112,0.0141,0.0141,0.0141,0,0.0106,0.0125,0.0116,0.0133,0.0145,0.013,0.0153,0.0154,0.0155,0.0162,0.015,0.0146,0.0136,0.0147,0.0154,0.0147,0.0123,0.015,0.0151,0.0152,0.0153,0.0116,0.0114,0.0143,0.0143,0.0143,0.0143,0,0.0134,0.0152,0.0161,0.0182,0.0192,0.0208,0.0211,0.0221,0.022,0.0218,0.0224,0.0203,0.0203,0.0196,0.0184,0.0188,0.0164,0.0156,0.014,0.0159,0.0118,0.0115,0.0147,0.0146,0.0145,0.0144,0,0,0.0144,0.0175,0.0182,0.0208,0.0223,0.0239,0.0262,0.0281,0.0303,0.0288,0.0308,0.0292,0.0271,0.0266,0.0244,0.0224,0.0204,0.0197,0.0195,0.0162,0.0147,0.0135,0.0129,0.0195,0.0195,0.0195,0.0113,0,0.0174,0.0221,0.0229,0.0282,0.0309,0.0312,0.0342,0.0355,0.0356,0.0369,0.0335,0.0343,0.0302,0.0303,0.0276,0.0228,0.0198,0.0226,0.0133,0.013,0.0118,0.0126,0.0195,0.011,0.0109,0.0109,0.0108,0,0.0205,0.0236,0.0292,0.0348,0.036,0.039,0.0438,0.0465,0.0468,0.0467,0.045,0.0418,0.039,0.0352,0.0268,0.0288,0.0222,0.0173,0.0169,0.0141,0.0112,0.0089,0.0101,0.0101,0.0102,0.0102,0.0103,0,0.023,0.0285,0.0337,0.0355,0.0408,0.0441,0.0473,0.0494,0.0532,0.0528,0.0541,0.0488,0.0476,0.0387,0.0277,0.0277,0.0171,0.0159,0.0079,0.0076,0.0091,0.009,0.0093,0.0093,0.0094,0.0094,0.0094,0,0.0264,0.0308,0.0357,0.0389,0.0464,0.0485,0.0561,0.0578,0.0611,0.0659,0.0598,0.0604,0.0485,0.0406,0.0295,0.0174,0.0182,0.0083,0.0059,0.011,0.0112,0.0087,0.0087,0.0091,0.0091,0.0092,0.0093,0,0.0287,0.0317,0.0384,0.045,0.0481,0.0538,0.063,0.068,0.0699,0.0757,0.0761,0.0699,0.0602,0.046,0.0313,0.0212,0.0087,0.0036,0.0089,0.0069,-0.0002,0.0001,-0.005,-0.0051,-0.0052,-0.0053,-0.0053,0,0.0302,0.0338,0.043,0.0483,0.0521,0.0608,0.0674,0.0725,0.0776,0.0813,0.0838,0.0763,0.0702,0.0481,0.0323,0.0103,0.0069,-0.0012,0.0002,0.0004,-0.0015,-0.001,-0.0005,-0.0055,-0.0055,-0.0055,-0.0055,0,0.0333,0.0366,0.0426,0.0527,0.0608,0.0705,0.0793,0.0833,0.0896,0.0915,0.0908,0.0796,0.0683,0.0496,0.032,0.016,0.0035,-0.0022,-0.0021,-0.0008,-0.0003,-0.0019,-0.0013,-0.0058,-0.0058,-0.0058,-0.0058,0,0.036,0.0402,0.0477,0.0572,0.0675,0.0769,0.0815,0.0879,0.0932,0.0964,0.0957,0.0834,0.0766,0.0525,0.0362,0.0205,0.0168,0.0104,0.0098,0.0099,0.0163,0.0194,0.0181,0,0,0,0,0,0.0383,0.0433,0.0516,0.0621,0.0722,0.0784,0.0886,0.0921,0.0971,0.0981,0.0975,0.0871,0.0651,0.0547,0.0391,0.033,0.0124,0.0139,0.0043,-0.0075,-0.0071,-0.0023,0,0,0,0,0,0,0.04,0.0475,0.0513,0.0643,0.0719,0.0835,0.0901,0.0938,0.0938,0.0962,0.0847,0.0816,0.0596,0.0746,0.0385,0.0338,0.025,0.0043,0.0039,-0.0076,-0.0073,-0.0071,-0.002,0,0,0,0,0]}]]